Lamoni, IA

3:57 AM CST on December 07, 2016 (GMT -0600)
Lamoni Municipal

Weather History for KLWD - August, 2013

Change the Weather History Date:

Monday, August 19, 2013

  Actual Average Record
Temperature  
Mean Temperature 72 °F 74 °F  
Max Temperature 85 °F 84 °F 100 °F (1983)
Min Temperature 59 °F 64 °F 51 °F (1967)
Degree Days  
Heating Degree Days 0 0  
Month to date heating degree days 3 0  
Since 1 June heating degree days 41 21  
Since 1 July heating degree days 9 2  
Cooling Degree Days 7 9  
Month to date cooling degree days 123 184  
Year to date cooling degree days 672 747  
Since 1 June cooling degree days 596 693  
Growing Degree Days 22 (Base 50)    
Moisture  
Dew Point 60 °F    
Average Humidity 67    
Maximum Humidity 87    
Minimum Humidity 46    
Precipitation  
Precipitation 0.00 in 0.13 in 1.70 in (1990)
Month to date precipitation 0.31 2.57  
Sea Level Pressure  
Sea Level Pressure 30.05 in    
Wind  
Wind Speed 7 mph (South)    
Max Wind Speed 14 mph    
Max Gust Speed 18 mph    
Visibility 9 miles    
Events      
T = Trace of Precipitation, MM = Missing Value Source: NWS Daily Summary

Daily Weather History Graph

Daily Weather History Graph

Search for Another Location

Airport or City:

Trip Planner

Search our weather history database for the weather conditions in past years. The results will help you decide how hot, cold, wet, or windy it might be!

Date:

Astronomy

Aug. 19, 2013 Rise Set
Actual Time 6:30 AM CDT 8:07 PM CDT
Civil Twilight 6:01 AM CDT 8:36 PM CDT
Nautical Twilight 5:26 AM CDT 9:11 PM CDT
Astronomical Twilight 4:48 AM CDT 9:48 PM CDT
Moon 6:58 PM CDT (8/19) 4:50 AM CDT (8/19)
Length of Visible Light 14h 34m
Length of Day
13h 37m
Waxing Gibbous, 97% of the Moon is Illuminated
Aug 19
Waxing Gibbous
Aug 20
Full
Aug 28
Last Quarter
Sep 5
New
Sep 12
First Quarter

Hourly Weather History & Observations

Time (CDT) Temp. Heat Index Dew Point Humidity Pressure Visibility Wind Dir Wind Speed Gust Speed Precip Events Conditions
12:53 AM 64.0 °F - 57.0 °F 78% 30.11 in 10.0 mi SW 4.6 mph - N/A   Clear
1:53 AM 64.0 °F - 57.9 °F 80% 30.09 in 10.0 mi SSW 5.8 mph - N/A   Clear
2:53 AM 64.0 °F - 57.9 °F 80% 30.09 in 9.0 mi South 6.9 mph - N/A   Partly Cloudy
3:53 AM 64.0 °F - 57.9 °F 80% 30.07 in 9.0 mi South 5.8 mph - N/A   Clear
4:53 AM 62.1 °F - 57.9 °F 86% 30.08 in 7.0 mi SSW 4.6 mph - N/A   Clear
5:53 AM 63.0 °F - 57.9 °F 84% 30.09 in 7.0 mi South 4.6 mph - N/A   Clear
6:53 AM 62.1 °F - 57.9 °F 86% 30.09 in 6.0 mi South 4.6 mph - N/A   Clear
7:53 AM 64.9 °F - 60.1 °F 84% 30.09 in 6.0 mi South 5.8 mph - N/A   Haze
8:53 AM 68.0 °F - 62.1 °F 81% 30.10 in 8.0 mi SSW 6.9 mph - N/A   Clear
9:53 AM 73.0 °F - 64.0 °F 73% 30.10 in 10.0 mi South 10.4 mph - N/A   Clear
10:53 AM 75.9 °F - 63.0 °F 64% 30.10 in 10.0 mi South 8.1 mph - N/A   Clear
11:53 AM 78.1 °F - 61.0 °F 56% 30.09 in 10.0 mi South 11.5 mph - N/A   Clear
12:53 PM 81.0 °F 81.6 °F 60.1 °F 49% 30.07 in 10.0 mi South 5.8 mph 18.4 mph N/A   Clear
1:53 PM 82.9 °F 83.2 °F 60.1 °F 46% 30.05 in 10.0 mi SSW 10.4 mph 17.3 mph N/A   Clear
2:53 PM 82.9 °F 83.2 °F 60.1 °F 46% 30.04 in 10.0 mi SSW 9.2 mph - N/A   Partly Cloudy
3:53 PM 82.9 °F 83.2 °F 60.1 °F 46% 30.01 in 10.0 mi South 11.5 mph 18.4 mph N/A   Scattered Clouds
4:53 PM 82.9 °F 82.8 °F 59.0 °F 44% 30.00 in 10.0 mi South 9.2 mph - N/A   Mostly Cloudy
5:53 PM 82.9 °F 82.8 °F 59.0 °F 44% 30.00 in 10.0 mi South 8.1 mph - N/A   Mostly Cloudy
6:53 PM 82.0 °F 82.4 °F 60.1 °F 47% 29.99 in 10.0 mi South 8.1 mph - N/A   Partly Cloudy
7:53 PM 79.0 °F - 62.1 °F 56% 30.00 in 10.0 mi SSE 3.5 mph - N/A   Mostly Cloudy
8:53 PM 75.9 °F - 61.0 °F 60% 30.01 in 10.0 mi SSE 4.6 mph - N/A   Scattered Clouds
9:53 PM 73.0 °F - 61.0 °F 66% 30.01 in 10.0 mi SSE 4.6 mph - N/A   Clear
10:53 PM 71.1 °F - 60.1 °F 68% 30.01 in 10.0 mi South 5.8 mph - N/A   Clear
11:53 PM 69.1 °F - 61.0 °F 75% 30.01 in 10.0 mi SSW 6.9 mph - N/A   Clear